Location: Newark
(44.9333°N, 0.5667°E)
Time: 11:25:53
(UTC+00:00)

UWE-3 - Pass Details

Date: 25 February 2020
Orbit: 585 x 683 km, 97.6° (Epoch: 06 April)

Event Time Altitude Azimuth Distance (km) Brightness Sun altitude
Rises 05:00:14 0° 18° (NNE) 3,044 ? -19.0°
Reaches altitude 10° 05:02:35 10° 25° (NNE) 2,131 ? -18.6°
Maximum altitude 05:07:03 44° 98° (E) 951 ? -17.8°
Drops below altitude 10° 05:11:29 10° 170° (S) 2,117 ? -17.0°
Sets 05:13:48 0° 177° (S) 3,022 ? -16.6°
